Wheaton, MN

7:51 AM CDT on August 27, 2016 (GMT -0500)
Wheaton Municipal

Weather History for KETH - June, 2014

Change the Weather History Date:

Tuesday, June 10, 2014

  Actual Average Record
Temperature  
Mean Temperature 62 °F -  
Max Temperature 77 °F 79 °F 96 °F (1956)
Min Temperature 48 °F 55 °F 42 °F (1964)
Degree Days  
Heating Degree Days 2    
Growing Degree Days 12 (Base 50)    
Moisture  
Dew Point 50 °F    
Average Humidity 62    
Maximum Humidity 93    
Minimum Humidity 41    
Precipitation  
Precipitation 0.00 in - - ()
Sea Level Pressure  
Sea Level Pressure 29.90 in    
Wind  
Wind Speed 7 mph (SSE)    
Max Wind Speed 13 mph    
Max Gust Speed 17 mph    
Visibility 10 miles    
Events      
Averages and records for this station are not official NWS values.
T = Trace of Precipitation, MM = Missing Value Source: NWS Daily Summary

Daily Weather History Graph

Daily Weather History Graph

Search for Another Location

Airport or City:

Trip Planner

Search our weather history database for the weather conditions in past years. The results will help you decide how hot, cold, wet, or windy it might be!

Date:

Astronomy

Jun. 10, 2014 Rise Set
Actual Time 5:36 AM CDT 9:15 PM CDT
Civil Twilight 4:58 AM CDT 9:53 PM CDT
Nautical Twilight 4:07 AM CDT 10:44 PM CDT
Astronomical Twilight 2:59 AM CDT 11:53 PM CDT
Moon 6:34 PM CDT (6/10) 3:51 AM CDT (6/10)
Length of Visible Light 16h 55m
Length of Day
15h 39m
Waxing Gibbous, 92% of the Moon is Illuminated
Jun 10
Waxing Gibbous
Jun 12
Full
Jun 19
Last Quarter
Jun 27
New
Jul 5
First Quarter

Hourly Weather History & Observations

Time (CDT) Temp. Dew Point Humidity Pressure Visibility Wind Dir Wind Speed Gust Speed Precip Events Conditions
12:16 AM 59.0 °F 46.4 °F 63% 29.96 in 10.0 mi South 6.9 mph - N/A   Clear
12:56 AM 57.2 °F 46.4 °F 67% 29.96 in 10.0 mi South 8.1 mph - N/A   Clear
1:16 AM 57.2 °F 46.4 °F 67% 29.96 in 10.0 mi South 8.1 mph - N/A   Clear
1:36 AM 57.2 °F 46.4 °F 67% 29.96 in 10.0 mi South 6.9 mph - N/A   Clear
1:56 AM 55.4 °F 46.4 °F 72% 29.96 in 10.0 mi South 6.9 mph - N/A   Clear
2:16 AM 55.4 °F 46.4 °F 72% 29.96 in 10.0 mi South 6.9 mph - N/A   Clear
2:36 AM 55.4 °F 46.4 °F 72% 29.96 in 10.0 mi South 5.8 mph - N/A   Clear
3:16 AM 55.4 °F 46.4 °F 72% 29.95 in 10.0 mi South 5.8 mph - N/A   Clear
3:36 AM 55.4 °F 46.4 °F 72% 29.95 in 10.0 mi South 6.9 mph - N/A   Clear
3:56 AM 51.8 °F 46.4 °F 82% 29.94 in 10.0 mi Calm Calm - N/A   Clear
4:16 AM 50.0 °F 44.6 °F 82% 29.94 in 10.0 mi Calm Calm - N/A   Clear
4:36 AM 48.2 °F 46.4 °F 93% 29.95 in 10.0 mi SE 5.8 mph - N/A   Clear
4:56 AM 48.2 °F 46.4 °F 93% 29.95 in 10.0 mi Calm Calm - N/A   Clear
5:16 AM 48.2 °F 44.6 °F 87% 29.95 in 10.0 mi SE 4.6 mph - N/A   Clear
5:36 AM 48.2 °F 44.6 °F 87% 29.95 in 10.0 mi SE 3.5 mph - N/A   Clear
5:56 AM 48.2 °F 46.4 °F 93% 29.96 in 10.0 mi Calm Calm - N/A   Clear
6:16 AM 48.2 °F 46.4 °F 93% 29.96 in 10.0 mi ESE 3.5 mph - N/A   Clear
6:36 AM 50.0 °F 46.4 °F 87% 29.96 in 10.0 mi ESE 4.6 mph - N/A   Clear
6:56 AM 51.8 °F 48.2 °F 88% 29.96 in 10.0 mi ESE 3.5 mph - N/A   Clear
7:16 AM 53.6 °F 50.0 °F 88% 29.96 in 10.0 mi ESE 5.8 mph - N/A   Clear
7:36 AM 55.4 °F 51.8 °F 88% 29.96 in 10.0 mi SE 3.5 mph - N/A   Clear
7:56 AM 59.0 °F 51.8 °F 77% 29.96 in 10.0 mi SE 4.6 mph - N/A   Clear
8:16 AM 60.8 °F 53.6 °F 77% 29.96 in 10.0 mi SE 5.8 mph - N/A   Clear
8:56 AM 64.4 °F 53.6 °F 68% 29.95 in 10.0 mi SSE 6.9 mph - N/A   Clear
9:16 AM 66.2 °F 53.6 °F 64% 29.95 in 10.0 mi SE 5.8 mph - N/A   Clear
9:36 AM 66.2 °F 51.8 °F 60% 29.94 in 10.0 mi SSE 11.5 mph - N/A   Clear
10:16 AM 68.0 °F 51.8 °F 56% 29.94 in 10.0 mi SSE 6.9 mph - N/A   Clear
10:36 AM 69.8 °F 53.6 °F 56% 29.94 in 10.0 mi South 8.1 mph - N/A   Clear
10:57 AM 69.8 °F 51.8 °F 53% 29.93 in 10.0 mi South 6.9 mph - N/A   Clear
11:16 AM 69.8 °F 51.8 °F 53% 29.93 in 10.0 mi South 8.1 mph - N/A   Clear
11:36 AM 71.6 °F 51.8 °F 50% 29.93 in 10.0 mi SE 5.8 mph 9.2 mph N/A   Scattered Clouds
12:16 PM 71.6 °F 51.8 °F 50% 29.92 in 10.0 mi South 8.1 mph - N/A   Mostly Cloudy
12:36 PM 71.6 °F 51.8 °F 50% 29.91 in 10.0 mi South 6.9 mph - N/A   Scattered Clouds
12:56 PM 73.4 °F 53.6 °F 50% 29.91 in 10.0 mi South 5.8 mph - N/A   Clear
1:16 PM 71.6 °F 53.6 °F 53% 29.90 in 10.0 mi SSE 8.1 mph - N/A   Scattered Clouds
1:36 PM 73.4 °F 53.6 °F 50% 29.90 in 10.0 mi South 5.8 mph - N/A   Scattered Clouds
2:16 PM 75.2 °F 53.6 °F 47% 29.89 in 10.0 mi South 9.2 mph - N/A   Clear
2:36 PM 75.2 °F 51.8 °F 44% 29.89 in 10.0 mi South 10.4 mph - N/A   Scattered Clouds
2:56 PM 75.2 °F 53.6 °F 47% 29.89 in 10.0 mi South 11.5 mph 16.1 mph N/A   Scattered Clouds
3:16 PM 75.2 °F 53.6 °F 47% 29.89 in 10.0 mi SSE 10.4 mph - N/A   Scattered Clouds
3:36 PM 77.0 °F 53.6 °F 44% 29.88 in 10.0 mi SSW 8.1 mph 16.1 mph N/A   Scattered Clouds
4:16 PM 75.2 °F 53.6 °F 47% 29.87 in 10.0 mi SE 12.7 mph 17.3 mph N/A   Clear
4:36 PM 75.2 °F 53.6 °F 47% 29.87 in 10.0 mi SSE 12.7 mph - N/A   Scattered Clouds
4:56 PM 77.0 °F 51.8 °F 41% 29.87 in 10.0 mi SSW 10.4 mph - N/A   Scattered Clouds
5:16 PM 77.0 °F 51.8 °F 41% 29.87 in 10.0 mi South 8.1 mph - N/A   Scattered Clouds
5:36 PM 75.2 °F 51.8 °F 44% 29.86 in 10.0 mi SSE 5.8 mph - N/A   Clear
5:56 PM 77.0 °F 51.8 °F 41% 29.86 in 10.0 mi South 6.9 mph - N/A   Clear
6:16 PM 75.2 °F 51.8 °F 44% 29.85 in 10.0 mi South 4.6 mph - N/A   Clear
6:36 PM 75.2 °F 50.0 °F 41% 29.85 in 10.0 mi South 5.8 mph - N/A   Clear
6:56 PM 75.2 °F 50.0 °F 41% 29.85 in 10.0 mi South 8.1 mph - N/A   Clear
7:16 PM 75.2 °F 50.0 °F 41% 29.84 in 10.0 mi South 8.1 mph - N/A   Scattered Clouds
7:36 PM 75.2 °F 51.8 °F 44% 29.84 in 10.0 mi SSE 10.4 mph - N/A   Scattered Clouds
7:56 PM 73.4 °F 51.8 °F 47% 29.83 in 10.0 mi SSE 9.2 mph - N/A   Clear
8:16 PM 73.4 °F 51.8 °F 47% 29.84 in 10.0 mi SSE 8.1 mph - N/A   Clear
8:36 PM 71.6 °F 53.6 °F 53% 29.83 in 10.0 mi SSE 8.1 mph - N/A   Clear
8:56 PM 71.6 °F 51.8 °F 50% 29.83 in 10.0 mi SSE 10.4 mph - N/A   Clear
9:16 PM 69.8 °F 51.8 °F 53% 29.83 in 10.0 mi SE 8.1 mph - N/A   Clear
9:36 PM 68.0 °F 51.8 °F 56% 29.83 in 10.0 mi SE 6.9 mph - N/A   Clear
10:16 PM 66.2 °F 51.8 °F 60% 29.83 in 10.0 mi SE 8.1 mph - N/A   Clear
10:36 PM 62.6 °F 51.8 °F 68% 29.82 in 10.0 mi SE 8.1 mph - N/A   Clear
10:56 PM 62.6 °F 51.8 °F 68% 29.83 in 10.0 mi SE 6.9 mph - N/A   Clear
11:16 PM 62.6 °F 51.8 °F 68% 29.84 in 10.0 mi SE 8.1 mph - N/A   Clear
11:36 PM 62.6 °F 51.8 °F 68% 29.83 in 10.0 mi SE 8.1 mph - N/A   Clear
11:56 PM 62.6 °F 51.8 °F 68% 29.84 in 10.0 mi SE 6.9 mph - N/A   Clear